Location: Brazeau Presbyterian Church
(37.6610°N, 89.6507°W)
Time: 00:59:34
(UTC+00:00)

Daily predictions for brighter satellites

Satellite Brightness Start Highest point End
(mag) Time Altitude Azimuth Time Altitude Azimuth Time Altitude Azimuth
CZ-4 R/B 4.3 00:00:37 10° SSE 00:04:32 63° ENE 00:08:29 10° N
Cosmos 1025 Rocket 3.2 00:00:15 10° NNW 00:04:34 73° W 00:08:51 10° S
MOS 1 Rocket 2.9 00:02:02 10° SSE 00:06:16 78° ENE 00:10:33 10° N
IRS-P3 4.3 00:02:09 10° S 00:07:28 75° WSW 00:12:49 10° NNW
Cosmos 2016 Rocket 4.3 00:06:34 10° SSW 00:12:43 71° W 00:19:02 10° N
Cosmos 909 Rocket 4.2 00:08:47 10° NNW 00:15:03 81° WSW 00:21:46 10° SSE
CZ-2D R/B 3.2 00:13:56 10° SSE 00:17:54 80° ENE 00:22:00 10° N
SPOT 1/Viking Rocket 3.4 00:15:57 10° SSE 00:21:04 81° ENE 00:26:16 10° N
Cosmos 1782 Rocket 3.6 00:17:25 10° S 00:21:51 84° W 00:26:18 10° N
Cosmos 1943 Rocket 3.6 00:17:59 10° SSE 00:20:25 19° SE 00:20:25 19° SE
ARIANE 5 R/B 4.3 00:18:52 10° SSW 00:23:21 33° W 00:27:51 10° NNW
Tiangong -1.4 00:21:20 10° WNW 00:24:22 40° N 00:24:28 40° N
IRAS Rocket 4.1 00:20:48 10° SSE 00:26:23 83° ENE 00:31:59 10° NNW
Cosmos 2061 Rocket 4.2 00:25:53 10° S 00:32:15 77° W 00:38:35 10° N
Cosmos 1140 Rocket 3.3 00:28:20 10° S 00:33:29 72° ESE 00:36:52 22° NNE
SL-19 R/B 4.0 00:28:20 10° SSE 00:33:43 81° ENE 00:38:58 10° NNW
COSMO-SKYMED 1 2.8 00:30:08 10° N 00:34:13 63° WNW 00:38:17 10° SSW
SL-4 R/B 3.9 00:31:52 10° NNW 00:33:09 15° N 00:33:09 15° N
Geosat 3.9 00:30:10 10° SSE 00:35:10 90° ENE 00:40:12 10° NNW
Meteor 2-12 Rocket 4.5 00:30:04 10° N 00:36:02 52° E 00:41:55 10° SSE
Cosmos 1833 Rocket 2.9 00:38:52 10° N 00:44:19 46° ENE 00:44:22 46° ENE
Cosmos 1975 Rocket 2.8 00:43:50 10° N 00:48:09 85° E 00:52:30 10° S
Delta 2 Rocket 3.4 00:44:57 10° W 00:48:35 61° SSW 00:48:35 61° SSW
Cosmos 1441 Rocket 4.4 00:46:20 10° NNW 00:49:25 36° W 00:52:30 10° SSW
ATLAS 5 CENTAUR R/B 3.9 00:48:57 10° N 00:49:26 12° N 00:49:26 12° N
VEP-3 4.4 00:47:03 10° WSW 00:52:35 22° SSW 00:55:45 15° SSE
Resurs 01 Rocket 4.1 00:58:13 11° N 00:58:13 11° N 00:58:27 10° N
Cosmos 1891 Rocket 4.5 00:53:25 10° S 00:59:48 90° ENE 01:06:18 10° N
Cosmos 2084 Rocket 3.9 01:00:46 10° SW 01:04:21 57° W 01:04:21 57° W
Cosmos 407 Rocket 4.0 01:09:48 10° SSW 01:13:35 49° SSW 01:13:35 49° SSW
NOSS 3-4 (A) 4.4 01:12:55 10° NW 01:20:00 59° WSW 01:28:08 10° SSE
NOSS 3-4 (C) 4.4 01:13:00 10° NW 01:20:04 60° WSW 01:28:08 10° SSE
Cosmos 1464 Rocket 3.9 01:14:22 10° S 01:28:40 - N 01:20:09 74° SSE
Cosmos 2278 Rocket 3.4 01:22:25 10° SSW 01:25:11 30° SSW 01:25:11 30° SSW
USA 281 3.2 01:39:32 77° W 01:39:32 77° W 01:45:54 10° NNW
SL-12 R/B(2) 4.4 01:33:40 10° SW 01:41:19 68° NW 01:44:53 40° NNE
Cosmos 1943 Rocket 4.2 02:00:00 10° SW 02:02:00 22° SW 02:02:00 22° SW
ACS3 Solar Sail 4.2 08:59:41 10° NNE 09:00:18 13° NNE 09:00:18 13° NNE
USA 234 4.4 09:14:52 10° E 09:20:35 34° NNE 09:20:57 33° NNE
Cosmos 2219 Rocket 4.2 09:42:01 18° NNE 09:42:01 18° NNE 09:43:29 10° NNE
NOSS 3-1 (C) 4.4 09:49:30 31° NE 09:49:30 31° NE 09:52:18 10° NE
COSMOS 2428 3.5 09:47:50 44° SE 09:48:43 48° ESE 09:54:10 10° NE
Cosmos 2322 4.0 09:56:05 66° E 09:56:05 66° E 10:01:33 10° NNE
Cosmos 921 Rocket 4.0 10:07:02 47° E 10:07:02 47° E 10:10:59 10° SSE
BlueWalker 3 4.4 10:09:09 16° NE 10:09:09 16° NE 10:10:48 10° ENE
Cosmos 1727 Rocket 3.8 10:06:11 10° S 10:12:21 90° W 10:18:36 10° N
Cosmos 2278 Rocket 4.1 10:18:58 10° N 10:23:45 27° ENE 10:28:28 10° ESE
Cosmos 2237 Rocket 3.6 10:19:09 10° S 10:24:20 38° ESE 10:29:30 10° NE
USA 267 4.1 10:23:42 10° NNE 10:29:17 31° NNW 10:29:41 31° NW
NOSS 3-1 (A) 3.1 10:29:29 32° S 10:31:29 63° ESE 10:36:36 10° NE
Meteor 1-24 Rocket 4.0 10:29:37 10° S 10:35:24 69° E 10:41:02 10° NNE
Cosmos 2173 Rocket 3.9 10:33:05 10° N 10:39:12 84° E 10:45:17 10° S
SJ-11-01 4.5 10:37:34 10° NNE 10:42:15 71° ESE 10:46:55 10° S
Cosmos 44 Rocket 4.1 10:39:37 19° NNW 10:43:10 53° ENE 10:48:12 10° SE
Cosmos 1000 Rocket 4.4 10:40:51 10° SSW 10:47:03 63° W 10:53:20 10° N
Meteor 2-5 Rocket 3.9 10:41:29 10° S 10:47:24 80° E 10:53:18 10° N
Cosmos 1908 Rocket 4.0 10:43:02 10° N 10:47:26 61° E 10:51:47 10° SSE
Gbstr 26 Del rocket 4.1 10:47:30 35° NW 10:47:57 35° NNW 10:53:08 10° NE
ACS3 Solar Sail 3.7 10:43:41 10° NNW 10:44:26 13° NNW 10:44:26 13° NNW
Cosmos 2123 Rocket 3.9 10:47:27 10° S 10:53:41 82° W 10:59:54 10° N
Cosmos 1340 Rocket 4.2 11:00:18 21° SSW 11:00:18 21° SSW 11:01:47 10° SSW
Cosmos 1943 Rocket 2.8 10:54:06 10° NNW 10:59:31 54° ENE 11:04:52 10° SE
CZ-2C R/B 3.6 10:55:36 10° N 10:58:22 24° NW 10:58:22 24° NW
Cosmos 1140 Rocket 3.3 10:55:58 10° NNW 11:01:07 85° WSW 11:06:12 10° SSE
SJ 16-02 4.3 10:59:49 10° NE 11:01:08 11° ENE 11:02:25 10° ENE
USA 234 3.2 10:56:37 10° SE 11:03:10 78° SW 11:08:18 18° NW
ARGOS 4.3 10:58:59 10° NNW 11:02:06 23° NW 11:02:06 23° NW
Meteor 2-21 Rocket 4.4 11:03:21 10° SSW 11:09:24 63° W 11:15:28 10° N
Cosmos 2016 Rocket 4.0 11:04:14 10° N 11:10:38 88° E 11:16:58 10° S
TIMED 4.4 11:06:31 10° NNW 11:10:47 85° ENE 11:15:02 10° SSE
Iridium 4 Rocket 2.9 11:08:34 10° N 11:12:51 90° E 11:16:58 10° S
COSMO-SKYMED 1 2.9 11:17:08 10° SSE 11:21:12 64° ENE 11:25:17 10° N
Cosmos 1484 Rocket 3.8 11:17:58 10° NNE 11:21:23 44° E 11:24:45 10° S
SL-16 R/B 4.3 11:17:53 10° SSE 11:22:47 31° ESE 11:27:43 10° NE
Timation 2 Rocket 4.0 11:17:08 10° NNW 11:23:45 75° WSW 11:30:00 10° SSE
IRS-1D 3.5 11:19:49 10° N 11:24:37 51° WNW 11:29:22 10° SSW
SKYMED 2 3.5 11:21:32 10° S 11:25:51 77° WSW 11:30:12 10° NNW
USA 276 1.9 11:27:18 24° NW 11:28:41 63° NE 11:31:29 10° ESE
Cosmos 2061 Rocket 4.1 11:25:46 10° N 11:31:59 84° E 11:38:10 10° S
COSMOS 2428 3.8 11:29:57 15° W 11:33:10 23° WNW 11:37:40 10° N
NOSS 0 Rocket 4.4 11:32:09 10° SW 11:37:44 36° WNW 11:43:22 10° N
Cosmos 1371 Rocket 4.5 11:36:01 10° S 11:41:12 68° ESE 11:46:28 10° NNE
Cosmos 407 Rocket 3.4 11:38:46 10° NNW 11:43:50 68° WSW 11:48:53 10° S
Helios 1A Rocket 2.9 11:42:01 10° S 11:45:12 39° W 11:48:24 10° NNW
BlueWalker 3 1.7 11:42:58 12° NW 11:46:17 75° SW 11:49:52 10° SE
Cosmos 1980 4.3 11:46:55 10° SW 11:52:02 35° WNW 11:57:13 10° N
IGS 5A 3.7 11:48:07 10° NNE 11:52:08 71° E 11:56:07 10° S
